Weather in Kyulekyan

Russia / Sakha (Yakutia) Republic     64°49′53″N   120°54′52″E
temp.,
°C
wind,
m/s
gust,
m/s
humid.,
%
clouds,
%
prec.,
mm/h
press.,
hPa
HPBL,
m
17 june, thu
thu1700:00+14n236159 0.0 100943
03:00+12nnw227033 0.0 101033
06:00+16nnw366095 0.0 1010196
09:00+21n354196 0.0 10101080
12:00+24n342922 0.0 10092516
15:00+26nne3325100 0.0 10073040
18:00+26ne342595 0.0 10072953
21:00+21ne2243100 0.0 100826
18 june, fri
fri1800:00+17ne2250100 0.0 100813
03:00+15ne2251100 0.0 100931
06:00+17ne2652100 0.0 1009169
09:00+23ene3734100 0.0 1008779
12:00+27ene332679 0.0 10082606
15:00+28e3424100 0.0 10063110
18:00+27se4425100 0.0 10072823
21:00+22ese224396 0.0 100726
19 june, sat
sat1900:00+19se2450100 0.0 100887
03:00+18s245799 0.0 100881
06:00+17ese3863100 0.0 1009332
09:00+16e2584100 0.1 1009229
12:00+17ene247991 0.0 1009387
15:00+21e126198 0.1 10081082
18:00+20e226599 0.1 1008667
21:00+19ene127698 0.1 1008109
20 june, sun
sun2000:00+17e1184100 0.0 100813
03:00+16se118871 0.0 100812
06:00+18se117966 0.0 1009123
09:00+21ese116340 0.1 1009578
12:00+26sse124391 0.0 10081857
15:00+27nw133814 0.0 10062047
18:00+28ese133451 0.0 10052311
21:00+24ene255246 0.0 1006112
21 june, mon
mon2100:00+20e256286 0.0 100688
03:00+17se227816 0.5 100723
06:00+20se247345 0.0 1006145
09:00+26sse234720 0.1 1006604
12:00+30sw34355 0.0 10052116
15:00+29wsw453666 0.0 10052169
18:00+25nw15467 0.1 1005673
21:00+24w235045 0.1 100569